TimeCDT,TemperatureF,Dew PointF,Humidity,Sea Level PressureIn,VisibilityMPH,Wind Direction,Wind SpeedMPH,Gust SpeedMPH,PrecipitationIn,Events,Conditions,WindDirDegrees,DateUTC
12:52 AM,54.0,53.1,97,29.98,10.0,Calm,Calm,-,N/A,,Clear,0,2012-09-09 05:52:00
1:52 AM,54.0,52.0,93,29.97,10.0,Calm,Calm,-,N/A,,Clear,0,2012-09-09 06:52:00
2:52 AM,54.0,51.1,90,29.96,10.0,SSW,3.5,-,N/A,,Clear,200,2012-09-09 07:52:00
3:52 AM,54.0,51.1,90,29.95,10.0,Calm,Calm,-,N/A,,Clear,0,2012-09-09 08:52:00
4:52 AM,54.0,51.1,90,29.98,10.0,Calm,Calm,-,N/A,,Clear,0,2012-09-09 09:52:00
5:52 AM,52.0,51.1,97,29.99,10.0,SSW,3.5,-,N/A,,Clear,200,2012-09-09 10:52:00
6:52 AM,54.0,51.1,90,30.00,10.0,WSW,4.6,-,N/A,,Clear,250,2012-09-09 11:52:00
7:52 AM,60.1,54.0,80,30.02,10.0,Calm,Calm,-,N/A,,Clear,0,2012-09-09 12:52:00
8:52 AM,64.9,54.0,68,30.03,10.0,NW,11.5,-,0.01,,Clear,320,2012-09-09 13:52:00
9:52 AM,68.0,54.0,61,30.05,10.0,North,8.1,-,N/A,,Clear,360,2012-09-09 14:52:00
10:52 AM,70.0,51.1,51,30.06,10.0,NNW,10.4,-,N/A,,Clear,340,2012-09-09 15:52:00
11:52 AM,73.0,51.1,46,30.06,10.0,NNW,8.1,-,N/A,,Clear,330,2012-09-09 16:52:00
12:52 PM,73.0,50.0,44,30.06,10.0,North,10.4,-,N/A,,Clear,350,2012-09-09 17:52:00
1:52 PM,73.0,50.0,44,30.06,10.0,NNW,13.8,-,N/A,,Clear,340,2012-09-09 18:52:00
2:52 PM,75.0,52.0,44,30.05,10.0,NNW,10.4,-,N/A,,Clear,340,2012-09-09 19:52:00
3:52 PM,75.0,51.1,43,30.06,10.0,North,10.4,-,N/A,,Partly Cloudy,350,2012-09-09 20:52:00
4:52 PM,75.9,51.1,42,30.06,10.0,North,10.4,-,N/A,,Scattered Clouds,350,2012-09-09 21:52:00
5:52 PM,73.0,50.0,44,30.08,10.0,North,9.2,-,N/A,,Partly Cloudy,350,2012-09-09 22:52:00
6:52 PM,70.0,52.0,53,30.08,10.0,North,4.6,-,N/A,,Clear,360,2012-09-09 23:52:00
7:52 PM,64.0,53.1,67,30.09,10.0,Calm,Calm,-,N/A,,Clear,0,2012-09-10 00:52:00
8:52 PM,59.0,55.0,87,30.11,10.0,Calm,Calm,-,N/A,,Clear,0,2012-09-10 01:52:00
9:52 PM,57.0,55.0,93,30.12,10.0,Calm,Calm,-,N/A,,Clear,0,2012-09-10 02:52:00
10:52 PM,55.9,54.0,93,30.13,10.0,Calm,Calm,-,N/A,,Clear,0,2012-09-10 03:52:00
11:52 PM,55.9,54.0,93,30.13,10.0,Calm,Calm,-,N/A,,Clear,0,2012-09-10 04:52:00